Location: Bettgenhausen
(50.6463°N, 7.5681°E)
Time: 05:21:51
(UTC+00:00)

STARLINK-1045 - Pass Details

Date: 27 February 2020
Orbit: 549 x 550 km, 53.0° (Epoch: 31 March)

Event Time Altitude Azimuth Distance (km) Brightness Sun altitude
Rises 18:33:09 0° 231° (SW) 2,710 7.9 -14.5°
Reaches altitude 10° 18:35:24 10° 227° (SW) 1,819 6.9 -14.8°
Maximum altitude 18:39:26 54° 150° (SSE) 676 3.8 -15.4°
Enters shadow 18:41:12 30° 88° (E) 1,001 4.4 -15.7°
